Snowfall_Accumulation
0.0 0.0 0.0 0.0 0.0 0.0 0.0 0.0 0.0 0.0 0.0 0.0 0.0 0.0 0.0 0.0 0.0 0.0 0.0 0.0 0.0 0.0 0.0 0.0 0.0 0.0 0.0 0.0 0.0 0.0 0.0 0.0 0.0 0.0 0.0 0.0 0.0 0.0 0.0 0.0 0.0 0.0 0.0
0.0 0.0 0.0 0.0 0.0 0.0 0.0 0.0 0.0 0.0 0.0 0.0 0.0 0.0 0.0 0.0 0.0 0.0 0.0 0.0 0.0 0.0 0.0 0.0 0.0 0.0 0.0 0.0 0.0 0.0 0.0 0.0 0.0 0.0 0.0 0.0 0.0 0.0 0.0 0.0 0.0 0.0 0.0
0.0 0.0 0.0 0.0 0.0 0.0 0.0 0.0 0.0 0.0 0.0 0.0 0.0 0.0 0.0 0.0 0.0 0.0 0.0 0.0 0.0 0.0 0.0 0.0 0.0 0.0 0.0 0.0 0.0 0.0 0.0 0.0 0.0 0.0 0.0 0.0 0.0 0.0 0.0 0.0 0.0 0.0 0.0
0.0 0.0 0.0 0.0 0.0 0.0 0.0 0.0 0.0 0.0 0.0 0.0 0.0 0.0 0.0 0.0 0.0 0.0 0.0 0.0 0.0 0.0 0.0 0.0 0.0 0.0 0.0 0.0 0.0 0.0 0.0 0.0 0.0 0.0 0.0 0.0 0.0 0.1 0.0 0.0 0.0 0.0 0.0
0.0 0.0 0.0 0.0 0.0 0.0 0.0 0.0 0.0 0.0 0.0 0.0 0.0 0.0 0.0 0.0 0.0 0.0 0.0 0.0 0.0 0.0 0.0 0.0 0.0 0.0 0.0 0.0 0.0 0.0 0.0 0.0 0.0 0.0 0.0 0.0 0.0 0.0 0.0 0.1 0.0 0.0 0.0
0.0 0.0 0.0 0.0 0.0 0.0 0.0 0.0 0.0 0.0 0.0 0.0 0.0 0.0 0.0 0.0 0.0 0.0 0.0 0.0 0.0 0.0 0.0 0.0 0.0 0.0 0.0 0.0 0.0 0.0 0.0 0.0 0.0 0.0 0.0 0.0 0.0 0.0 0.2 0.2 0.1 0.0 0.0
0.0 0.0 0.0 0.0 0.0 0.0 0.0 0.0 0.0 0.0 0.0 0.0 0.0 0.0 0.0 0.0 0.0 0.0 0.0 0.0 0.0 0.0 0.0 0.0 0.0 0.0 0.0 0.0 0.0 0.0 0.0 0.0 0.0 0.0 0.0 0.0 0.0 0.0 1.9 2.6 0.3 0.3 0.0
0.0 0.0 0.0 0.0 0.0 0.0 0.0 0.0 0.0 0.0 0.0 0.0 0.0 0.0 0.0 0.0 0.0 0.0 0.0 0.0 0.0 0.0 0.0 0.0 0.0 0.0 0.0 0.0 0.0 0.0 0.0 0.0 0.0 0.0 0.0 2.1 2.1 0.0 0.1 2.4 4.4 3.8 0.0
0.0 0.0 0.0 0.0 0.0 0.7 0.0 0.0 0.0 0.0 0.0 0.0 0.0 0.0 0.0 0.0 0.0 0.0 0.0 0.0 0.0 0.0 0.0 0.0 0.0 0.0 0.0 0.0 0.0 0.0 0.0 0.0 0.0 0.0 0.0 0.0 0.0 0.0 0.1 0.1 0.3 4.3 3.4
0.0 0.0 0.0 0.0 0.0 1.2 1.0 0.0 0.0 0.0 0.0 0.0 0.0 0.0 0.0 0.0 0.0 0.0 0.0 0.0 0.0 0.0 0.0 0.0 0.0 0.0 0.0 0.0 0.0 0.0 0.0 0.0 0.0 0.0 0.0 0.1 0.1 0.0 0.0 0.2 0.1 0.3 1.4
1.3 2.3 2.6 2.6 1.9 0.0 1.0 0.8 0.5 0.0 0.6 1.0 0.0 0.0 0.0 0.0 0.0 0.0 0.0 0.0 0.0 0.0 0.0 0.1 0.1 0.0 0.0 0.0 0.0 0.0 0.0 0.0 0.0 0.0 0.0 0.1 0.1 0.2 0.2 0.1 0.2 0.3 0.4
1.9 3.1 3.8 5.6 8.0 5.4 2.0 1.4 0.6 0.8 0.7 1.5 0.0 0.0 0.0 0.0 0.6 0.0 0.0 0.0 0.1 0.0 0.1 0.1 0.1 0.2 0.6 0.3 0.4 0.2 0.1 0.2 0.1 0.2 0.1 0.1 0.1 0.2 0.1 0.2 0.3 0.5 0.5
6.5 3.8 10.4 14.2 14.1 9.7 6.9 4.2 3.2 1.7 1.0 1.1 0.0 0.0 0.0 2.4 0.7 1.1 1.4 0.9 1.2 0.3 0.6 0.7 1.2 1.1 0.5 1.1 1.5 1.1 0.1 0.6 0.9 0.8 0.7 0.3 0.4 0.6 0.5 0.5 0.7 0.3 0.2
0.9 1.6 8.4 11.6 13.6 11.2 8.0 5.2 4.1 3.8 1.9 1.3 0.5 0.7 1.0 1.4 3.1 4.3 1.9 2.0 2.8 1.3 0.6 0.8 1.3 0.9 1.6 3.8 2.1 2.4 2.1 1.6 2.0 2.2 2.3 1.8 1.2 1.2 2.0 0.5 0.5 0.3 0.4
1.6 0.0 3.3 3.0 1.6 3.0 1.7 2.2 1.5 1.6 1.5 0.7 1.0 0.6 0.0 0.7 1.5 0.8 1.7 2.7 2.9 1.2 1.2 1.8 2.0 2.7 2.7 3.5 4.7 5.2 5.5 3.4 5.2 5.2 3.6 4.4 4.4 2.6 3.0 3.6 3.2 1.0 1.1
0.0 0.1 0.0 0.0 0.1 0.3 0.3 0.1 0.5 0.2 0.2 0.2 0.0 0.3 0.1 0.0 0.3 0.2 0.3 0.8 2.7 1.2 1.3 0.9 0.9 1.5 2.7 3.5 4.4 5.9 6.3 5.8 3.3 4.1 5.4 4.2 4.8 3.2 4.0 3.6 3.8 4.3 2.5
0.0 0.0 0.0 0.0 0.0 0.0 0.0 0.1 0.0 0.0 0.0 0.0 0.0 0.0 0.1 0.0 0.0 0.0 0.1 0.1 0.1 0.9 2.5 2.4 1.8 0.7 0.9 2.3 2.9 3.3 5.1 6.6 6.4 5.3 4.4 4.7 5.0 4.5 3.6 4.2 4.4 4.0 4.2
0.0 0.0 0.0 0.0 0.0 0.0 0.0 0.0 0.0 0.0 0.0 0.0 0.0 0.0 0.0 0.1 0.6 1.4 2.5 2.4 2.0 1.5 1.0 2.5 3.2 3.1 3.2 2.8 2.0 2.3 1.8 2.9 4.9 5.0 4.6 4.2 4.1 4.6 5.1 6.7 9.9 12.0 8.8
0.0 0.0 0.0 0.0 0.0 0.0 0.0 0.0 0.0 0.0 0.0 0.0 1.3 1.1 1.0 0.9 3.1 3.9 3.9 3.6 2.9 3.8 3.5 4.2 4.6 3.7 3.4 3.5 2.9 1.6 1.6 1.7 1.5 1.8 3.4 4.2 3.7 7.8 9.3 12.4 13.1 12.5 10.2
0.0 0.0 0.0 0.0 0.0 0.0 0.0 0.0 0.0 0.6 0.2 2.8 3.2 1.0 4.3 4.4 5.2 4.9 4.4 4.7 4.4 4.9 4.6 5.2 4.1 2.8 3.6 3.5 2.4 1.8 2.2 3.0 1.4 0.9 2.0 4.6 5.8 5.8 7.3 10.9 12.0 12.8 10.8
0.0 0.0 0.0 0.0 0.0 0.0 0.0 0.0 0.4 0.3 2.7 3.1 5.7 5.8 7.5 7.1 6.2 6.6 5.9 5.2 5.8 5.1 5.3 4.5 3.4 3.2 3.3 3.6 2.7 2.0 2.8 3.5 6.7 4.3 5.7 4.7 4.7 9.2 6.8 7.1 9.2 10.4 7.2
0.0 0.0 0.0 0.0 0.0 0.0 0.0 0.2 0.2 2.8 3.9 5.9 6.3 5.9 5.3 6.4 5.8 5.1 6.1 5.3 4.2 4.6 4.1 3.6 4.2 4.5 4.2 3.7 4.1 3.6 3.0 3.3 6.1 9.8 8.9 8.6 9.1 7.5 6.5 5.4 7.6 6.4 6.1
0.0 0.0 0.0 0.0 0.0 0.0 0.0 0.1 0.7 2.1 3.6 4.5 3.2 5.0 4.4 3.9 3.6 4.4 5.5 5.1 4.3 4.5 4.8 4.5 4.1 4.3 5.6 6.7 7.5 5.6 3.4 3.5 6.9 8.5 9.3 9.7 8.0 6.5 7.0 5.8 6.0 6.3 8.6
0.0 0.0 0.0 0.0 0.0 0.0 0.0 0.6 1.3 4.0 5.1 5.3 6.5 5.8 5.3 5.8 5.5 5.4 5.1 4.5 4.9 4.7 4.6 5.9 6.6 7.2 6.9 6.3 6.1 7.4 7.6 7.4 6.9 8.2 10.0 10.1 8.4 7.1 7.7 8.4 7.0 8.4 8.4
0.0 0.0 0.4 0.3 0.1 0.0 0.6 0.7 1.8 2.7 3.4 3.2 3.6 5.4 4.7 4.4 3.7 3.5 3.8 3.5 4.9 4.9 6.7 6.7 7.8 9.3 9.0 10.5 12.6 11.8 11.7 10.4 9.6 10.7 11.3 10.8 7.8 7.1 5.7 5.1 4.7 4.3 3.8
0.0 0.1 0.1 0.1 0.2 0.2 0.6 1.2 1.3 0.6 0.8 3.0 3.9 7.4 4.9 12.4 8.3 8.2 10.5 10.0 8.3 7.9 11.0 12.6 13.8 14.1 14.1 14.6 13.4 12.4 11.5 11.8 9.8 9.9 8.2 6.9 6.5 6.2 5.9 6.5 6.8 4.4 3.1